This is the latest recevied weather packets stored in our database for station/object KF6ILA. If no packets are shown the sender has not sent any weather packets the latest 1 day(s).
| Time | Temp. | Humidity | Pressure | Rain* | Wind** | Luminosity | Snow |
|---|---|---|---|---|---|---|---|
| 1777987372 | 5.56° C | 100% | 1009.6 hPa | 2.29 mm | 4.92 m/s, 283° | 14 W/m² | - |
| 1777987075 | 5.56° C | 100% | 1009.5 hPa | 2.03 mm | 5.36 m/s, 277° | 14 W/m² | - |
| 1777986778 | 5.56° C | 100% | 1009.5 hPa | 1.78 mm | 3.13 m/s, 277° | 16 W/m² | - |
| 1777986547 | 5.56° C | 100% | 1009.4 hPa | 1.52 mm | 5.81 m/s, 289° | 7 W/m² | - |
| 1777986481 | 5.56° C | 100% | 1009.4 hPa | 1.52 mm | 5.81 m/s, 289° | 7 W/m² | - |
| 1777986186 | 5.56° C | 100% | 1009.4 hPa | 1.27 mm | 5.36 m/s, 267° | 5 W/m² | - |
| 1777985887 | 5.56° C | 100% | 1009.5 hPa | 1.27 mm | 4.92 m/s, 268° | 0 W/m² | - |
| 1777985590 | 5.56° C | 100% | 1009.3 hPa | 1.27 mm | 5.81 m/s, 280° | 0 W/m² | - |
| 1777985292 | 5.56° C | 100% | 1009.3 hPa | 1.02 mm | 4.92 m/s, 282° | 0 W/m² | - |
| 1777984996 | 5.56° C | 100% | 1009.3 hPa | 1.02 mm | 7.15 m/s, 290° | 0 W/m² | - |
| 1777984699 | 5.56° C | 100% | 1009.3 hPa | 0.76 mm | 4.47 m/s, 286° | 0 W/m² | - |
| 1777984402 | 5.56° C | 100% | 1009.3 hPa | 0.76 mm | 5.36 m/s, 256° | 0 W/m² | - |
| 1777984105 | 5.56° C | 100% | 1009.1 hPa | 0.25 mm | 6.71 m/s, 261° | 0 W/m² | - |
| 1777983808 | 5.56° C | 100% | 1008.9 hPa | 0.25 mm | 4.92 m/s, 271° | 0 W/m² | - |
| 1777983510 | 5.56° C | 100% | 1009 hPa | 0.25 mm | 4.02 m/s, 264° | 0 W/m² | - |
| 1777983214 | 6.11° C | 100% | 1009.1 hPa | 0.51 mm | 4.02 m/s, 274° | 0 W/m² | - |
| 1777982916 | 6.11° C | 100% | 1009 hPa | 0.51 mm | 4.02 m/s, 255° | 0 W/m² | - |
| 1777982322 | 6.11° C | 100% | 1009.2 hPa | 0.51 mm | 5.36 m/s, 255° | 0 W/m² | - |
| 1777982025 | 6.11° C | 100% | 1009.1 hPa | 0.25 mm | 5.36 m/s, 247° | 0 W/m² | - |
| 1777981728 | 6.11° C | 100% | 1009.1 hPa | 0.25 mm | 5.81 m/s, 256° | 0 W/m² | - |
| 1777981431 | 6.11° C | 100% | 1009.1 hPa | 0.51 mm | 7.15 m/s, 268° | 0 W/m² | - |
| 1777981135 | 6.11° C | 100% | 1009.1 hPa | 0.51 mm | 8.94 m/s, 268° | 0 W/m² | - |
| 1777980838 | 6.11° C | 100% | 1009.2 hPa | 0.76 mm | 7.15 m/s, 266° | 0 W/m² | - |
| 1777980541 | 6.11° C | 100% | 1009.3 hPa | 0.76 mm | 6.71 m/s, 266° | 0 W/m² | - |
| 1777979947 | 6.11° C | 100% | 1009.3 hPa | 1.02 mm | 7.15 m/s, 267° | 0 W/m² | - |
* Rain latest hour (hover to see other rain measurements)
** Current wind speed in m/s (hover to see current wind gust speed)